Regional Weather Roundup
Issued by NWS

Home | Current Version | Previous Version | Text Only | Print | Product List | Glossary On
Versions: 1 2 3 4 5 6 7 8 9 10 11 12 13 14 15 16 17 18 19 20 21 22 23 24 25 26 27 28 29 30 31 32 33 34 35 36 37 38 39 40 41 42 43 44 45 46 47 48 49 50
000
ASUS45 KSLC 202210
RWRUT

UTAH REGIONAL WEATHER ROUNDUP
NATIONAL WEATHER SERVICE SALT LAKE CITY UT
400 PM MDT FRI OCT 20 2017

UTZ001>011-023>025-202300-

NORTHERN UTAH

CITY           SKY/WX    TMP DP  RH WIND       PRES   REMARKS
BRIGHAM CITY   CLOUDY    48  32  54 NW3       29.86R
HILL AFB       PTSUNNY   42  37  80 E6        29.85F
LOGAN          CLOUDY    45  37  73 CALM      29.85R
OGDEN          CLOUDY    44  36  73 SE10      29.85S
SALT LAKE CITY CLOUDY    48  36  63 VRB7      29.88R
TOOELE VALLEY  CLOUDY    50  32  50 N14G22    29.88R
WENDOVER       MOSUNNY   54  22  28 NW18G24   29.88R
HEBER CITY     LGT RAIN  43  32  65 NE9G18    29.81R
WEST JORDAN    CLOUDY    45  33  62 N12       29.89R

$$

UTZ011>015-024>027-202300-

CENTRAL/NORTHEAST UTAH

CITY           SKY/WX    TMP DP  RH WIND       PRES   REMARKS
PROVO AIRPORT  CLOUDY    48  32  53 N21G30    29.86R
MOAB/CANYONLAN PTSUNNY   76  24  14 SW28G39   29.57F
DELTA          PTSUNNY   54  19  26 N24G35    29.81R
PRICE          PTSUNNY   64  25  22 W28G38    29.64R
RICHFIELD      MOSUNNY   54  32  43 NW24G33   29.76R
ROOSEVELT      PTSUNNY   64  25  22 W23G33    29.62R
VERNAL         CLOUDY    69  26  20 SW20      29.56F

$$

UTZ013>016-019>022-027-202300-

SOUTHERN UTAH

CITY           SKY/WX    TMP DP  RH WIND       PRES   REMARKS
BRYCE CANYON   MOSUNNY   59  22  24 W20G30    29.83R
CEDAR CITY     PTSUNNY   63  30  28 W16G25    29.76R
MILFORD        CLOUDY    61  29  29 N26G36    29.72R
HANKSVILLE     MOSUNNY   75  23  14 SW21G38   29.60F
KANAB          SUNNY     68  25  19 W18G31    29.77R
BLANDING         N/A     70  23  17 S21G29    29.79F

$$

REGIONAL REPORTS     COLORADO/ARIZONA

CITY           SKY/WX    TMP DP  RH WIND       PRES   REMARKS
CRAIG, CO      CLOUDY    69  21  16 SW21G33   29.63S
GRAND JUNCTION PTSUNNY   74  28  18 S22G28    29.60F
RIFLE, CO      CLOUDY    71  23  16 SW18G26   29.64F
MONTROSE, CO   SUNNY     70  21  15 SW23G37   29.72F
CORTEZ, CO     MOSUNNY   73  23  15 SW21G31   29.78F
COLORADO CITY    N/A     72  30  21 SW23G30   29.79S
PAGE, AZ       MOSUNNY   81  21  11 SW13G24   29.61F
GRAND CANYON   PTSUNNY   68  22  17 W22G39    29.84F
KINGMAN, AZ    SUNNY     75  40  28 S26G35    29.77F
FLAGSTAFF, AZ  SUNNY     63  29  27 SW26G36   29.90F

$$

REGIONAL REPORTS    NEVADA/IDAHO/WYOMING

CITY           SKY/WX    TMP DP  RH WIND       PRES   REMARKS
LAS VEGAS, NV  MOSUNNY   78  37  22 SW15G24   29.68R
ELY, NY        SUNNY     50   3  14 NW18G26   29.89R
ELKO, NV       CLOUDY    48  19  31 W14G25    29.93R
POCATELLO, ID  CLOUDY    47  30  51 SW33G41   29.81R
BURLEY, ID     MOSUNNY   45  36  70 W13G23    29.83S
FORT BRIDGER,  CLOUDY    42  29  60 W25G38    29.82R
EVANSTON, WY   SNOW      33  32  96 W16G26    29.83R VSB 1/2 WCI  23
ROCK SPRINGS,  LGT RAIN  46  33  60 W29G49    29.68R
KEMMERER, WY   LGT SNOW  34  32  93 W35G41    29.76R WCI  19

$$



USA.gov is the U.S. government's official web portal to all federal, state and local government web resources and services.